Location: Wiesbaden
(50.0830°N, 8.2500°E)
Time: 21:36:22
(UTC+02:00)

ISS - Pass Details

Date: 19 September 2019
Orbit: 411 x 421 km, 51.6° (Epoch: 19 September)

Event Time Altitude Azimuth Distance (km) Brightness Sun altitude
Rises 20:35:10 0° 195° (SSW) 2,332 0.0 -10.7°
Reaches altitude 10° 20:38:08 10° 165° (SSE) 1,475 -1.3 -11.2°
Enters shadow 20:39:17 13° 145° (SE) 1,330 -1.7 -11.4°
